AirNav   Phillips 66 Aviation Fuel
 
 1142 users online  

T79 Skyway Manor Airport
Pearland, Texas, USA

GOING TO PEARLAND?


FAA INFORMATION EFFECTIVE 19 JULY 2018

Location

FAA Identifier: T79
Lat/Long: 29-33-20.8420N / 095-19-40.7750W
29-33.347367N / 095-19.679583W
29.5557894 / -95.3279931
(estimated)
Elevation: 55 ft. / 17 m (estimated)
Variation: 06E (1985)
From city: 3 miles W of PEARLAND, TX
Time zone: UTC -5 (UTC -6 during Standard Time)
Zip code: 77584

Airport Operations

Airport use: Open to the public
Activation date: 02/1971
Control tower: no
ARTCC: HOUSTON CENTER
FSS: MONTGOMERY COUNTY FLIGHT SERVICE STATION
NOTAMs facility: CXO (NOTAM-D service available)
Attendance: IREG
Wind indicator: yes
Segmented circle: no

Airport Communications

CTAF: 122.9
WX ASOS at LVJ (5 nm SE): 118.525 (281-992-1853)
WX ASOS at HOU (6 nm NE): PHONE 713-847-1462
WX AWOS-3 at AXH (8 nm W): 123.625 (281-431-6572)
WX ASOS at SGR (18 nm W): 118.125 (281-242-7605)

Nearby radio navigation aids

VOR radial/distance  VOR name  Freq  Var
HUBr199/6.6HOBBY VOR/DME117.1005E
IAHr173/24.1HUMBLE VORTAC116.6005E
VUHr300/29.6SCHOLES VOR/DME113.0006E
MHFr264/30.3TRINITY VOR/DME113.6007E

 
NDB name  Hdg/Dist  Freq  Var  ID
NIXIN188/26.932605EBVP -... ...- .--.
GALVESTON286/32.720608EGLS --. .-.. ...

Airport Services

Runway Information

Runway 17/35

Dimensions: 2550 x 70 ft. / 777 x 21 m
Surface: turf, in good condition
SOFT WHEN WET.
RUNWAY 17  RUNWAY 35
Traffic pattern: leftleft
Obstructions: 35 ft. pline, marked, 110 ft. from runway, 3:1 slope to clear50 ft. trees, 35 ft. right of centerline
ALSO 35 FT UNMARKED PLINE 100 FT 0B APCH RATIO 2:1.

Airport Ownership and Management from official FAA records

Ownership: Privately-owned
Owner: SKYWAY MANOR
2736 PIPER ROAD
PEARLAND, TX 77584
Phone (281) 997-7122
Manager: BERT WITHERS
2825 PIPER ROAD
PEARLAND, TX 77584
Phone (281) 997-7122
OWNER'S ASSOCIATION CONTACT

Airport Operational Statistics

Aircraft based on the field: 5
Single engine airplanes: 4
Multi engine airplanes: 1
    
Aircraft operations: avg 42/month *
60% transient general aviation
40% local general aviation
* for 12-month period ending 31 December 2016

Additional Remarks

NUMEROUS VIOLATIONS OF PRIM SFC ENTIRE RWY LGTH; BLDGS, FENCES, TREES & BRUSH.
NO TOUCH AND GO LANDINGS
FOR CD CTC HOUSTON APCH AT 281-443-5844 TO CNL IFR CALL 281-443-5888.

Instrument Procedures

There are no published instrument procedures at T79.

Some nearby airports with instrument procedures:

KLVJ - Pearland Regional Airport (5 nm SE)
KHOU - William P Hobby Airport (6 nm NE)
KAXH - Houston Southwest Airport (8 nm W)
KEFD - Ellington Airport (9 nm E)
T41 - La Porte Municipal Airport (15 nm NE)
KSGR - Sugar Land Regional Airport (18 nm W)
 
Loc | Ops | Rwys | IFR | FBO | Links
Com | Nav | Svcs | Stats | Notes


 
Area around T79 (Skyway Manor Airport)
 
Road maps at: MapQuest Bing Google
 
Aerial photo
No photo
 
Sectional chart

 
Airport distance calculator
Flying to Skyway Manor Airport? Find the distance to fly.

From to T79

Sunrise and sunset
Times for 19-Jul-2018
 Local
(UTC-5)
 Zulu
(UTC)
Morning civil twilight06:0811:08
Sunrise06:3511:35
Sunset20:2101:21
Evening civil twilight20:4701:47

Current date and time
Zulu (UTC)  19-Jul-2018 22:51:58
Local (UTC-5)  19-Jul-2018 17:51:58
 
METAR
KLVJ 
5nm SE 
192153Z AUTO 19007KT 10SM CLR 34/23 A2991 RMK AO2 SLP127 T03440233
KHOU 
5nm NE 
192153Z 20007KT 10SM FEW055 SCT250 36/23 A2989 RMK AO2 SLP124 T03560228
KAXH 
8nm W 
192235Z AUTO 20003KT 10SM CLR 34/22 A2990 RMK AO2 T03400224
KEFD 
9nm E 
192150Z 20009KT 10SM FEW055 SCT250 36/23 A2991
KSGR 
17nm W 
192153Z AUTO 19008KT 10SM CLR 36/22 A2989 RMK AO2 SLP122 T03610217
TAF
KHOU 
5nm NE 
192058Z 1921/2018 20007KT P6SM FEW050 FM200300 20005KT P6SM SKC FM201500 23010KT P6SM SCT025
KEFD 
9nm E 
192000Z 1920/2102 20009KT 9999 FEW030 SCT100 QNH2990INS BECMG 2002/2003 22006KT 9999 SKC QNH2992INS BECMG 2009/2010 22006KT 9999 SCT010 QNH2993INS BECMG 2014/2015 20010KT 9999 FEW070 QNH2992INS TX35/1921Z TN25/2010Z
KSGR 
17nm W 
192209Z 1922/2018 18008KT P6SM SKC FM200300 21006KT P6SM SKC TEMPO 2012/2016 BKN019 FM201600 23010KT P6SM SCT025
NOTAMs
Click for the latest NOTAMs
NOTAMs are issued by the DoD/FAA and will open in a separate window not controlled by AirNav.

 

 
 

Would you like to see your business listed on this page?

 If your business provides an interesting product or service to pilots, flight crews, aircraft, or users of the Skyway Manor Airport, you should consider listing it here.  To start the listing process, click on the button below
 
Add a business
 

Other Pages about Skyway Manor Airport

Update a link
 
Copyright © AirNav, LLC. All rights reserved. Privacy Policy  Contact